Regional Weather Roundup
Issued by NWS Midland/Odessa, TX

Skip options and go directly to product.
Home | Oldest Version | Previous Version | Current Version | All | Graphics & Text | Save Text | Print | Product List | Glossary On

Skip product version selection by date and time.   
256
ASUS44 KMAF 301310
RWRMAF
MIDLAND AREA WEATHER ROUNDUP
NATIONAL WEATHER SERVICE MIDLAND TX
800 AM CDT TUE SEP 30 2014

...IN SOUTHWEST TEXAS AND SOUTHEAST NEW MEXICO...

CITY           SKY/WX    TMP DP  RH WIND       PRES   REMARKS
ALPINE         CLEAR     63  56  78 W10       30.06R
ANDREWS        FAIR      62  59  91 S6        29.91S
ARTESIA        NOT AVBL
BIG SPRING     PTCLDY    66  60  81 SE12      29.93R
CARLSBAD       CLEAR     61  58  90 N7        29.91R
DRYDEN           N/A     66  62  87 N6        29.89S
FORT STOCKTON  CLEAR     63  58  83 S6        29.91R
GUAD PASS      CLEAR     61  54  77 W12       30.05R
HOBBS          CLEAR     59  59 100 S5        29.94R
MARFA          CLEAR     54  52  94 N5        30.06R
MIDLAND AIRPK  CLOUDY    66  60  81 S6        29.92R
MIDLAND INTL   MOCLDY    67  61  81 S13       29.91R
ODESSA         CLOUDY    67  59  75 S12       29.92R
PECOS          CLEAR     61  58  91 NW3       29.88S
PRESIDIO       FAIR      68  60  75 N6        29.93R
SEMINOLE       CLEAR     60  59  94 CALM      29.93S
SNYDER         PTCLDY    62  58  87 S8        29.92S
WINK           CLEAR     65  61  87 SE8       29.88R
$$
...OTHER STATIONS IN TEXAS...

CITY           SKY/WX    TMP DP  RH WIND       PRES   REMARKS
ABILENE        PTCLDY    67  58  72 S5        29.92R
AMARILLO       CLEAR     59  56  89 S14       29.90F
AUSTIN         PTCLDY    64  62  93 CALM      29.90R
BROWNSVILLE    CLOUDY    75  75 100 CALM      29.83S FOG
CORPUS CHRISTI MOCLDY    76  74  93 CALM      29.85R
DALLAS FTW     MOCLDY    71  66  84 E3        29.90S
DEL RIO        CLEAR     69  66  90 E7        29.88R
EL PASO        PTCLDY    66  54  65 S7        29.96R
HOUSTON INT    PTCLDY    73  71  93 CALM      29.88R
LUBBOCK        PTCLDY    62  58  86 S12       29.91S
SAN ANGELO     CLEAR     63  60  90 SW5       29.92R
SAN ANTONIO    CLEAR     69  63  81 N3        29.90S
WACO           MOCLDY    66  62  87 N3        29.91R
WICHITA FALLS  NOT AVBL
$$
...OTHER LOCATIONS IN NEW MEXICO...

CITY           SKY/WX    TMP DP  RH WIND       PRES   REMARKS
ALAMAGORDO     CLEAR     59  54  82 CALM      29.97R
ALBUQUERQUE    CLEAR     50  35  56 CALM      30.06R
CANNON AFB     NOT AVBL
CLOVIS           N/A     54  52  94 S6        29.96S
HOLLOMAN AFB   CLEAR     60  55  82 N3        29.96R
ROSWELL        CLEAR     59  52  77 NW7       29.93R
RUIDOSO        CLEAR     50  32  50 W8        30.10S
SANTA FE       PTCLDY    43  32  65 N9        30.06R WCI  38
TRUTH OR CONSE CLEAR     55  40  56 N6        30.01R
TUCUMCARI      CLEAR     56  49  77 W9        29.90R
$$

USA.gov is the U.S. government's official web portal to all federal, state and local government web resources and services.